Tracking 29799 objects as of 11-Oct-2024
HD Live streaming from Space Station
objects crossing your sky now

CHUANG XIN 1 (CZ-1)

Track CHUANG XIN 1 (CZ-1) now!
10-day predictions
CHUANG XIN 1 (CZ-1) is classified as:


NORAD ID: 28058
Int'l Code: 2003-049B
Perigee: 731.4 km
Apogee: 747.7 km
Inclination: 98.6 °
Period: 99.5 minutes
Semi major axis: 7110 km
RCS: 0.5789 m2 (medium)
Launch date: October 21, 2003
Source: People's Republic of China (PRC)
Launch site: Taiyaun Space Center, China (TSC)

Prototype of advanced telecommunications satellite for LEO.
Your satellite tracking list
Your tracking list is empty




NASA's NSSDC Master Catalog

Two Line Element Set (TLE):
1 28058U 03049B   24284.59353063  .00001479  00000-0  41070-3 0  9999
2 28058  98.5724 166.1342 0011453 244.4296 115.5713 14.47938685107318
Source of the keplerian elements: AFSPC